Weather History for Stockton, CA

Change the Weather History Date:

Monday, October 10, 2011

  Actual Average Record
Temperature  
Mean Temperature 63 °F -  
Max Temperature 69 °F 81 °F 98 °F (1991)
Min Temperature 56 °F 51 °F 41 °F (1985)
Degree Days  
Heating Degree Days 2 2  
Month to date heating degree days 35 11  
Since 1 July heating degree days 36 17  
Cooling Degree Days 0 2  
Month to date cooling degree days 2 34  
Year to date cooling degree days 1146 1300  
Growing Degree Days 12 (Base 50)    
Moisture  
Dew Point 58 °F    
Average Humidity 78    
Maximum Humidity 87    
Minimum Humidity 68    
Precipitation  
Precipitation 0.01 in 0.02 in 0.86 in (1957)
Month to date precipitation 0.73 0.15  
Year to date precipitation 9.20 9.48  
Since 1 July precipitation 0.73 0.45  
Snow  
Snow 0.00 in - 0.00 in (2002)
Month to date snowfall 0.0  
Since 1 July snowfall 0.0  
Since 1 September snowfall 0.0  
Snow Depth -    
Sea Level Pressure  
Sea Level Pressure 29.95 in    
Wind  
Wind Speed 3 mph (ESE)    
Max Wind Speed 12 mph    
Max Gust Speed 17 mph    
Visibility 9 miles    
Events Rain    
T = Trace of Precipitation, MM = Missing Value Source: NWS Daily Summary

Daily Weather History Graph

Daily Weather History Graph

Search for Another Location

Airport:

Trip Planner

Search our weather history database for the weather conditions in past years. The results will help you decide how hot, cold, wet, or windy it might be!

Date:

Astronomy

Oct. 10, 2011 Rise Set
Actual Time 7:08 AM PDT 6:34 PM PDT
Civil Twilight 6:42 AM PDT 7:01 PM PDT
Nautical Twilight 6:11 AM PDT 7:31 PM PDT
Astronomical Twilight 5:41 AM PDT 8:01 PM PDT
Moon 5:41 PM PDT (10/10) 5:55 AM PDT (10/10)
Length of Visible Light 12h 18m
Length of Day
11h 26m
Waxing Gibbous, 98% of the Moon is Illuminated
Oct 10
Waxing Gibbous
Oct 11
Full
Oct 19
Last Quarter
Oct 26
New
Nov 2
First Quarter

Hourly Weather History & Observations

Time (PDT) Temp. Dew Point Humidity Pressure Visibility Wind Dir Wind Speed Gust Speed Precip Events Conditions
12:55 AM 59.0 °F 53.1 °F 81% 29.92 in 10.0 mi Calm Calm - N/A   Clear
1:55 AM 57.0 °F 53.1 °F 87% 29.92 in 10.0 mi ENE 3.5 mph - N/A   Clear
2:55 AM 55.9 °F 52.0 °F 87% 29.92 in 10.0 mi Calm Calm - N/A   Clear
3:55 AM 57.0 °F 53.1 °F 87% 29.92 in 10.0 mi Calm Calm - N/A   Clear
4:55 AM 60.1 °F 53.1 °F 78% 29.93 in 10.0 mi NNW 4.6 mph - N/A   Mostly Cloudy
5:55 AM 60.8 °F 53.6 °F 77% 29.92 in 10.0 mi Calm Calm - N/A   Partly Cloudy
6:55 AM 57.9 °F 54.0 °F 87% 29.93 in 10.0 mi SE 3.5 mph - N/A   Clear
7:55 AM 59.0 °F 55.0 °F 87% 29.94 in 10.0 mi Calm Calm - N/A   Mostly Cloudy
8:55 AM 62.6 °F 55.4 °F 77% 29.95 in 10.0 mi South 3.5 mph - N/A   Mostly Cloudy
9:55 AM 66.2 °F 55.4 °F 68% 29.98 in 10.0 mi ESE 3.5 mph - N/A   Mostly Cloudy
10:55 AM 66.9 °F 55.9 °F 68% 29.98 in 10.0 mi East 3.5 mph - N/A   Overcast
11:55 AM 66.0 °F 59.0 °F 78% 29.99 in 5.0 mi East 4.6 mph - 0.00 in Rain Light Rain
12:55 PM 66.2 °F 60.8 °F 83% 29.98 in 10.0 mi East 5.8 mph - N/A   Overcast
1:55 PM 68.0 °F 60.1 °F 76% 29.96 in 10.0 mi East 6.9 mph - N/A   Overcast
2:55 PM 68.0 °F 57.2 °F 68% 29.95 in 9.0 mi SSE 9.2 mph - N/A   Overcast
3:39 PM 66.2 °F 62.6 °F 88% 29.95 in 2.5 mi ESE 9.2 mph - 0.00 in Rain Light Rain
3:52 PM 64.4 °F 62.6 °F 94% 29.95 in 5.0 mi ESE 8.1 mph - 0.00 in Rain Light Rain
3:55 PM 64.9 °F 62.1 °F 90% 29.95 in 5.0 mi ESE 5.8 mph - 0.00 in Rain Light Rain
4:22 PM 64.4 °F 62.6 °F 94% 29.95 in 2.0 mi ESE 8.1 mph - 0.00 in Rain Light Rain
4:36 PM 64.4 °F 62.6 °F 94% 29.94 in 2.0 mi ESE 8.1 mph - 0.01 in Rain Light Rain
4:55 PM 64.4 °F 62.6 °F 94% 29.94 in 10.0 mi East 11.5 mph - N/A   Overcast
5:55 PM 64.9 °F 61.0 °F 87% 29.94 in 10.0 mi ESE 6.9 mph - N/A   Overcast
6:55 PM 66.0 °F 61.0 °F 84% 29.95 in 10.0 mi Calm Calm - N/A   Overcast
7:55 PM 64.9 °F 60.1 °F 84% 29.96 in 10.0 mi Calm Calm - 0.00 in   Overcast
8:38 PM 64.4 °F 60.8 °F 88% 29.96 in 10.0 mi SSE 6.9 mph - N/A   Mostly Cloudy
8:52 PM 64.4 °F 60.8 °F 88% 29.97 in 10.0 mi SE 3.5 mph - N/A   Mostly Cloudy
8:55 PM 64.0 °F 60.1 °F 87% 29.97 in 10.0 mi SE 4.6 mph - N/A   Mostly Cloudy
9:42 PM 64.4 °F 60.8 °F 88% 29.97 in 10.0 mi ESE 3.5 mph - N/A   Overcast
9:55 PM 64.9 °F 60.1 °F 84% 29.97 in 10.0 mi SE 4.6 mph - N/A   Overcast
10:55 PM 64.0 °F 60.1 °F 87% 29.97 in 10.0 mi SE 3.5 mph - N/A   Overcast
11:55 PM 64.0 °F 61.0 °F 90% 29.99 in 10.0 mi Calm Calm - N/A   Overcast